Portada
METAR-TAF:

METAR-TAF

Aeroports :

Wakkanai, Japó

latitud: 45-24N, longitud: 141-48E, altitud: 8 m

Observació

L'informe es va fer fa 14 hores i 15 minuts, a les 09:00 UTC
Vent 18 kt del Oest
Temperatura 2°C
Humitat 60%
Pressió 1019 hPa
Visibilitat 10 km o més
Escasses núvols a una alçada de 3000 ft
Núvols disperses a una alçada de 4000 ft
Cel ennuvolat a una alçada de 5000 ft

METAR: RJCW 240900Z 26018KT 9999 FEW030 SCT040 BKN050 02/M05 Q1019

Hora: 08:15 (23:15 UTC)


TAF: manca

Observacions i pronòstics meteorològics de més de 4000 aeroports (METAR i TAF).

Les estacions disponibles són els punts grocs i vermells al mapa.

Posi el ratolí al punt desitjat per veure el nom de l'estació.

Feu clic per veure les observacions i els pronòstics meteorològics.

Per canviar el mapa: feu clic els botons verds amb una creu de color negre per apropar; al botó verd amb un guió per allunyar la imatge; o en les fletxes verdes per a mapes adjacents.


METAR-TAF: